{"data":{"norad_id":67513,"epoch":"2026-05-24T16:30:39.199680Z","epoch_age_seconds":105033,"freshness":"FRESH","line1":"1 67513U 26012W   26144.68795370  .00032193  00000+0  11728-2 0  9993","line2":"2 67513  43.0007 245.3024 0002082 275.4741  84.5873 15.27620933 19384","mean_motion":15.27620933,"eccentricity":0.0002082,"inclination_deg":43.0007,"raan_deg":245.3024,"arg_perigee_deg":275.4741,"mean_anomaly_deg":84.5873,"bstar":0.0011728,"rev_number":1938,"period_min":94.264222811616,"perigee_km":481.49805722188,"apogee_km":484.35500407604,"semimajor_km":6861.063530649,"source":"CELESTRAK","updated_at":"2026-05-25T13:38:21.600802Z"}}